Location: Horley
(51.1667°N, 0.1667°W)
Time: 02:22:17
(UTC+00:00)

Daily predictions for brighter satellites

Satellite Brightness Start Highest point End
(mag) Time Altitude Azimuth Time Altitude Azimuth Time Altitude Azimuth
Meteor 1-24 Rocket 3.8 00:02:18 22° SSW 00:06:13 77° WNW 00:11:52 10° N
USA 234 4.0 00:00:20 10° ENE 00:06:42 56° N 00:13:03 10° W
Cosmos 2227 Rocket 2.8 00:05:20 23° SSE 00:08:27 44° ESE 00:13:48 10° NE
Cosmos 773 Rocket 4.5 00:03:41 10° NW 00:08:36 46° WSW 00:11:17 24° SSW
Cosmos 304 Rocket 3.8 00:06:23 23° SSW 00:09:24 81° WNW 00:14:12 10° NNE
Cosmos 1892 2.6 00:09:05 33° SSE 00:10:26 64° E 00:13:55 10° NNE
Cosmos 332 Rocket 4.1 00:09:47 26° S 00:12:20 53° ESE 00:17:07 10° NNE
Cosmos 2181 Rocket 4.1 00:06:47 10° NNW 00:12:57 69° W 00:16:56 23° S
Cosmos 1980 4.0 00:07:58 10° NW 00:13:28 52° WSW 00:16:41 24° S
CENTAUR R/B 3.2 00:12:18 22° SSE 00:15:19 36° ESE 00:21:32 10° NE
GEOS 3 Rocket 3.9 00:14:12 10° NE 00:19:14 49° SE 00:22:03 24° S
H-2A R/B 1.9 00:17:29 10° NNE 00:21:48 89° W 00:24:02 27° SSW
Cosmos 1538 Rocket 4.2 00:17:45 10° NNW 00:22:58 70° ENE 00:27:12 16° SE
Cosmos 1503 Rocket 4.2 00:19:44 20° SSW 00:23:28 74° WNW 00:28:48 10° NNE
Cosmos 1777 Rocket 4.0 00:21:13 22° SSW 00:24:42 84° WNW 00:30:02 10° NNE
SL-4 R/B 2.7 00:21:22 10° W 00:25:08 35° SSW 00:26:25 28° S
Cosmos 2151 Rocket 4.0 00:22:42 10° NNW 00:26:58 50° W 00:29:10 26° SSW
Cosmos 1174 4.3 00:23:33 10° NW 00:28:28 51° WSW 00:30:27 27° S
Cosmos 2297 Rocket 2.2 00:24:22 19° SW 00:28:30 80° WNW 00:34:12 10° NNE
NOSS 8 (A) 4.2 00:25:42 10° NW 00:28:38 65° SW 00:30:08 29° SSE
Cosmos 2074 Rocket 4.0 00:24:31 23° S 00:28:39 85° E 00:34:54 10° N
Cosmos 2219 4.0 00:27:36 20° SSE 00:30:47 37° ESE 00:35:56 10° NE
Cosmos 2084 Rocket 3.4 00:29:51 27° SSW 00:32:01 62° SE 00:36:06 10° NE
ALOS 2 4.4 00:30:59 15° SW 00:33:04 20° W 00:36:20 10° NW
Okean 2 Rocket 3.6 00:29:27 10° NNW 00:33:45 48° W 00:36:03 25° SSW
Cosmos 1455 Rocket 3.6 00:30:05 10° N 00:34:27 54° ENE 00:37:36 18° SSE
ATLAS CENTAUR R/B 4.2 00:37:03 10° NW 00:38:54 13° NNW 00:40:47 10° NNE
Aureole 1 Rocket 4.1 00:38:34 20° SE 00:40:16 29° E 00:44:03 10° NE
Cosmos 1825 2.3 00:42:47 28° SW 00:44:17 54° WNW 00:47:40 10° N
Cosmos 1674 Rocket 4.0 00:41:51 23° SW 00:44:23 53° WNW 00:48:39 10° N
Cosmos 1378 Rocket 4.3 00:43:13 21° SW 00:45:49 44° WNW 00:50:04 10° N
Cosmos 1025 Rocket 3.0 00:50:34 25° S 00:53:02 84° E 00:57:23 10° NNE
Cosmos 2221 Rocket 4.2 00:51:16 21° SW 00:53:58 48° WNW 00:58:17 10° N
BREEZE-M DEB (TANK) 2.7 00:50:56 10° W 00:57:11 43° SSW 00:58:59 19° SE
Resurs 1-4 Rocket 4.0 00:54:23 10° NE 00:58:23 21° E 01:02:21 10° SE
NOSS 3-2 (A) 3.8 00:56:57 21° S 01:00:05 43° ESE 01:05:52 10° NE
Cosmos 1606 3.7 00:57:44 10° N 01:01:07 37° ENE 01:04:04 12° SE
Nadezhda 3 Rocket 4.1 00:55:36 10° NNW 01:01:49 64° W 01:06:12 20° S
Cosmos 2263 Rocket 2.8 00:58:49 20° S 01:02:24 46° ESE 01:07:42 10° NE
CZ-4C R/B 2.7 00:58:13 10° WSW 01:02:56 55° NW 01:08:58 10° NE
Cosmos 1898 Rocket 4.1 01:01:19 19° S 01:04:41 45° ESE 01:09:37 10° NE
COSMOS 2455 3.8 00:59:32 10° WSW 01:05:18 45° NW 01:11:06 10° NNE
Orbus 7S? 2.9 01:03:13 10° WNW 01:05:52 69° NNE 01:09:18 10° ESE
MOZ.5/SAFIR/RUBIN 5/SL-8 4.0 01:05:48 13° SSE 01:09:57 67° ENE 01:14:33 10° N
BlueWalker 3 2.2 01:09:13 10° W 01:12:58 68° N 01:16:42 10° ENE
Helios 1A Rocket 2.7 01:12:04 22° S 01:14:26 75° WSW 01:18:15 10° NNW
Cosmos 1461 4.2 01:14:31 17° SSE 01:16:27 25° ESE 01:19:40 10° ENE
BREEZE-M DEB (TANK) 2.8 01:21:58 10° W 01:25:57 11° SE 01:26:06 10° SE
Cosmos 1680 Rocket 3.5 01:28:07 10° NNW 01:33:22 88° ENE 01:38:35 10° SSE
SL-19 R/B 3.7 01:30:30 10° N 01:33:35 63° WNW 01:35:06 25° SW
Cosmos 1818 3.5 01:28:51 10° NW 01:34:20 74° SW 01:39:46 10° SSE
In-Cosmos 22 Rocket 4.3 01:29:58 18° SSW 01:34:25 86° WNW 01:40:18 10° NNE
Cosmos 2112 Rocket 4.1 01:30:17 10° NNW 01:35:30 79° ENE 01:40:42 10° SSE
SL-16 R/B 2.8 01:31:45 10° NW 01:37:03 40° WSW 01:41:09 16° S
SL-16 R/B 3.7 01:34:02 10° SE 01:39:51 43° ENE 01:45:41 10° N
Cosmos 1603 4.3 01:36:14 10° NNW 01:41:58 60° NE 01:47:37 10° SE
Cosmos 2237 Rocket 4.2 01:41:20 10° WNW 01:43:26 12° W 01:45:31 10° WSW
Cosmos 1869 3.1 01:40:14 10° NNW 01:43:56 69° W 01:46:40 17° S
Cosmos 1544 Rocket 3.5 01:41:38 10° NNW 01:46:06 79° W 01:49:57 14° S
Cosmos 292 Rocket 3.9 01:43:03 17° SW 01:46:41 69° WNW 01:51:31 10° NNE
SL-8 Rocket 4.0 01:43:18 15° SSW 01:48:27 84° W 01:54:42 10° N
USA 234 3.9 01:42:51 10° E 01:49:17 61° NNE 01:55:43 10° WNW
Cosmos 2082 3.7 01:45:35 16° SSW 01:50:06 89° WNW 01:55:47 10° NNE
IDEFIX/ARIANE 42P 2.8 01:45:20 10° NNE 01:50:35 68° ESE 01:55:13 13° S
Cosmos 2228 3.0 01:47:18 10° N 01:51:40 90° NE 01:55:50 11° S
Cosmos 1943 3.2 01:46:35 10° NNW 01:52:14 84° WSW 01:57:51 10° SSE
Cosmos 2227 Rocket 3.2 01:47:13 10° WSW 01:52:34 41° NW 01:57:56 10° NNE
CZ-2C R/B 3.9 01:50:16 10° NNE 01:55:36 48° E 02:00:36 10° S
H-2A R/B 4.4 01:54:38 10° NNW 01:56:51 14° NW 01:59:01 10° W
Cosmos 1437 Rocket 4.0 01:53:40 10° SSE 01:57:10 35° E 02:00:39 10° NNE
GEOS 3 Rocket 4.4 01:52:17 10° NE 01:57:15 47° NW 02:02:08 10° WSW
CZ-2C R/B 2.6 01:52:04 10° SSE 01:57:21 89° WSW 02:02:47 10° NNW
CZ-2D R/B 2.6 01:53:21 10° NNE 01:58:39 58° ESE 02:03:47 10° S
Cosmos 1975 Rocket 3.8 01:58:43 15° SW 02:01:58 40° WNW 02:06:08 10° N
Meteor 1-11 4.5 01:57:52 15° SSW 02:02:45 66° WNW 02:08:33 10° N
Cosmos 1727 Rocket 4.1 01:57:11 10° N 02:03:33 82° E 02:09:55 10° SSE
COBE Rocket 4.1 02:00:01 10° N 02:05:07 69° WNW 02:09:38 14° SSW
CENTAUR R/B 3.0 01:59:34 10° WSW 02:05:31 65° NW 02:12:59 10° NE
H-2A R/B 3.4 02:04:31 10° NNE 02:08:31 86° E 02:12:02 13° SSW
USA 238 DEB 4.4 02:06:34 11° S 02:12:09 40° ESE 02:18:20 10° NE
USA 238 4.4 02:06:36 10° S 02:12:13 40° ESE 02:18:23 10° NE
Cosmos 2297 Rocket 4.2 02:09:07 10° W 02:13:27 22° NW 02:17:49 10° NNE
Cosmos 2219 3.9 02:09:29 10° SW 02:14:51 46° NW 02:20:17 10° NNE
NPP 3.7 02:09:43 10° NNE 02:15:09 82° WNW 02:20:16 11° SSW
Cosmos 2341 Rocket 4.4 02:13:09 13° SSW 02:18:37 51° WNW 02:24:41 10° N
ASTEX 1 3.8 02:16:47 10° SSE 02:21:35 63° E 02:26:24 10° N
Cosmos 1606 Rocket 3.9 02:17:11 10° N 02:21:38 71° ENE 02:26:03 10° SSE
Aureole 1 Rocket 4.3 02:20:01 10° WSW 02:23:23 30° NW 02:27:31 10° NNE
Cosmos 1867 4.4 02:18:41 10° S 02:23:47 42° ESE 02:28:55 10° NE
Cosmos 921 Rocket 3.0 02:19:35 10° NNW 02:23:53 83° ENE 02:28:04 10° SSE
Cosmos 2227 4.4 02:18:50 11° SSW 02:24:18 71° ESE 02:30:03 10° NNE
ADEOS II 2.4 02:20:35 10° NNE 02:25:50 66° ESE 02:31:03 10° S
Meteor 2-13 Rocket 4.5 02:20:49 10° NNW 02:26:51 70° W 02:32:55 10° S
Cosmos 494 Rocket 4.0 02:22:01 10° NNW 02:27:16 84° WSW 02:32:32 10° SSE
Cosmos 1536 Rocket 3.7 02:27:08 11° SSW 02:31:26 68° WNW 02:35:52 10° N
Cosmos 1900 4.5 02:28:54 11° SSW 02:33:49 79° SE 02:38:56 10° NE
Cosmos 1606 4.3 02:33:01 10° NW 02:35:32 18° W 02:38:01 10° SW
Cosmos 1726 Rocket 3.8 02:32:47 10° N 02:37:15 76° ENE 02:41:40 10° SSE
Resurs 1-4 Rocket 2.2 02:33:25 10° N 02:38:40 68° WNW 02:43:54 10° SSW
Cosmos 724 4.4 02:36:29 10° NW 02:42:19 85° NE 02:48:10 10° SE
Cosmos 1937 Rocket 4.2 02:38:25 10° SW 02:43:28 45° WNW 02:48:31 10° NNE
Iridium 4 Rocket 4.3 02:41:47 10° N 02:46:01 46° E 02:50:31 10° SSE
Cosmos 2263 Rocket 3.1 02:41:13 10° WSW 02:46:26 39° NW 02:51:40 10° NNE
NOSS 3-2 (A) 4.0 02:45:25 10° WSW 02:50:47 51° NNW 02:57:16 10° NE
BlueWalker 3 2.2 02:47:36 10° WNW 02:51:21 70° N 02:55:06 10° E
Cosmos 1812 2.9 02:48:47 10° N 02:52:22 69° ENE 02:55:55 10° SSE
Cosmos 1821 Rocket 4.2 02:46:36 10° SSW 02:52:35 58° WNW 02:58:42 10° N
CZ-4C R/B 4.3 02:47:58 10° WNW 02:52:41 28° N 02:58:27 10° NE
Cosmos 1461 3.4 02:50:34 10° WSW 02:54:24 48° NW 02:58:11 10° NNE
USA 267 3.9 02:48:33 10° ENE 02:54:49 46° SE 03:01:02 10° SSW
Cosmos 2058 4.1 02:51:29 10° SSE 02:55:18 41° E 02:59:10 10° NNE
NOSS 3-2 (C) 3.4 02:51:00 10° SW 02:56:24 78° NW 03:02:57 10° NE
BREEZE M DEB (TANK) 4.4 02:41:37 10° W 02:57:06 75° SSW 03:01:20 10° ESE
AQUA 3.8 02:53:12 10° NNE 02:57:57 82° WNW 03:02:40 10° SSW
Cosmos 1607 4.0 02:53:01 10° NW 02:59:22 65° SW 03:05:36 10° SSE
SAR-Lupe-4 4.0 02:57:02 10° NNE 03:00:36 61° ESE 03:04:07 10° S
